EN

Hourly Weather Bolshie Pady

Today, 1 November, Sunday

Time Temperature Precipitation Wind Pressure Humidity
00:00 +8°C° 0.2 mm 5 mps 751 mmHg 90%
01:00 +8°C° 0.6 mm 5 mps 751 mmHg 90%
02:00 +8°C° 0.6 mm 5 mps 751 mmHg 91%
03:00 +8°C° 0.6 mm 5 mps 751 mmHg 91%
04:00 +8°C° 0.9 mm 6 mps 751 mmHg 91%
05:00 +8°C° 0.9 mm 6 mps 751 mmHg 91%
06:00 +8°C° 0.9 mm 6 mps 751 mmHg 92%
07:00 +8°C° 0.3 mm 6 mps 751 mmHg 90%
08:00 +8°C° 0.3 mm 6 mps 751 mmHg 87%
09:00 +8°C° 0.3 mm 6 mps 751 mmHg 85%
10:00 +7°C° 2.1 mm 6 mps 752 mmHg 87%
11:00 +7°C° 2.1 mm 5 mps 752 mmHg 89%
12:00 +7°C° 2.1 mm 5 mps 752 mmHg 91%
13:00 +7°C° 0.2 mm 5 mps 752 mmHg 90%
14:00 +7°C° 0.2 mm 5 mps 752 mmHg 88%
15:00 +7°C° 0.2 mm 5 mps 752 mmHg 87%
16:00 +7°C° 0 mm 5 mps 752 mmHg 87%
17:00 +7°C° 0 mm 5 mps 752 mmHg 87%
18:00 +7°C° 0 mm 5 mps 752 mmHg 87%
19:00 +7°C° 0 mm 4 mps 753 mmHg 85%
20:00 +7°C° 0 mm 4 mps 753 mmHg 83%
21:00 +7°C° 0 mm 4 mps 753 mmHg 81%
22:00 +7°C° 0 mm 4 mps 753 mmHg 79%
23:00 +7°C° 0 mm 4 mps 753 mmHg 77%

Tomorrow, 2 November, Monday

Time Temperature Precipitation Wind Pressure Humidity
00:00 +7°C° 0 mm 4 mps 753 mmHg 76%
01:00 +7°C° 0 mm 4 mps 753 mmHg 77%
02:00 +7°C° 0 mm 4 mps 753 mmHg 78%
03:00 +7°C° 0 mm 4 mps 753 mmHg 79%
04:00 +6°C° 0 mm 4 mps 753 mmHg 82%
05:00 +6°C° 0 mm 4 mps 753 mmHg 84%
06:00 +6°C° 0 mm 4 mps 753 mmHg 86%
07:00 +6°C° 0 mm 4 mps 753 mmHg 85%
08:00 +6°C° 0 mm 5 mps 753 mmHg 84%
09:00 +6°C° 0 mm 5 mps 754 mmHg 83%
10:00 +6°C° 0.4 mm 5 mps 753 mmHg 83%
11:00 +6°C° 0.4 mm 5 mps 753 mmHg 83%
12:00 +7°C° 0.4 mm 5 mps 753 mmHg 83%
13:00 +7°C° 0.3 mm 5 mps 753 mmHg 84%
14:00 +7°C° 0.3 mm 4 mps 753 mmHg 85%
15:00 +7°C° 0.3 mm 4 mps 753 mmHg 86%
16:00 +6°C° 0 mm 4 mps 753 mmHg 88%
17:00 +6°C° 0 mm 4 mps 753 mmHg 89%
18:00 +5°C° 0 mm 4 mps 753 mmHg 91%
19:00 +5°C° 0 mm 4 mps 754 mmHg 90%
20:00 +5°C° 0 mm 4 mps 754 mmHg 89%
21:00 +5°C° 0 mm 4 mps 754 mmHg 88%
22:00 +5°C° 0 mm 4 mps 754 mmHg 88%
23:00 +5°C° 0 mm 4 mps 754 mmHg 88%

Day after tomorrow, 3 November, Tuesday

Time Temperature Precipitation Wind Pressure Humidity
00:00 +5°C° 0 mm 4 mps 754 mmHg 88%
01:00 +5°C° 0 mm 4 mps 754 mmHg 89%
02:00 +5°C° 0 mm 3 mps 755 mmHg 89%
03:00 +5°C° 0 mm 3 mps 755 mmHg 90%
04:00 +5°C° 0 mm 3 mps 755 mmHg 90%
05:00 +5°C° 0 mm 3 mps 755 mmHg 90%
06:00 +4°C° 0 mm 3 mps 755 mmHg 90%
07:00 +5°C° 0 mm 3 mps 756 mmHg 88%
08:00 +6°C° 0 mm 4 mps 756 mmHg 86%
09:00 +6°C° 0 mm 4 mps 756 mmHg 84%
10:00 +8°C° 0 mm 3 mps 756 mmHg 81%
11:00 +9°C° 0 mm 3 mps 757 mmHg 78%
12:00 +11°C° 0 mm 3 mps 757 mmHg 75%
13:00 +11°C° 0 mm 3 mps 757 mmHg 74%
14:00 +11°C° 0 mm 3 mps 757 mmHg 74%
15:00 +12°C° 0 mm 3 mps 757 mmHg 73%
16:00 +11°C° 0 mm 3 mps 757 mmHg 77%
17:00 +10°C° 0 mm 2 mps 757 mmHg 82%
18:00 +9°C° 0 mm 2 mps 757 mmHg 86%
19:00 +8°C° 0 mm 2 mps 757 mmHg 86%
20:00 +8°C° 0 mm 2 mps 758 mmHg 85%
21:00 +8°C° 0 mm 2 mps 758 mmHg 84%
22:00 +8°C° 0 mm 2 mps 758 mmHg 84%
23:00 +7°C° 0 mm 2 mps 758 mmHg 84%

4 November, Wednesday

Time Temperature Precipitation Wind Pressure Humidity
00:00 +7°C° 0 mm 2 mps 758 mmHg 83%
01:00 +8°C° 0 mm 1 mps 758 mmHg 83%
02:00 +8°C° 0 mm 1 mps 758 mmHg 84%
03:00 +8°C° 0 mm 1 mps 758 mmHg 84%
04:00 +7°C° 0 mm 1 mps 758 mmHg 85%
05:00 +7°C° 0 mm 1 mps 758 mmHg 85%
06:00 +6°C° 0 mm 2 mps 758 mmHg 86%
07:00 +7°C° 0 mm 1 mps 759 mmHg 83%
08:00 +8°C° 0 mm 1 mps 759 mmHg 81%
09:00 +8°C° 0 mm 1 mps 759 mmHg 79%
10:00 +10°C° 0 mm 1 mps 759 mmHg 74%
11:00 +11°C° 0 mm 1 mps 759 mmHg 69%
12:00 +12°C° 0 mm 1 mps 759 mmHg 64%
13:00 +12°C° 0 mm 1 mps 759 mmHg 64%
14:00 +13°C° 0 mm 1 mps 759 mmHg 64%
15:00 +13°C° 0 mm 1 mps 759 mmHg 65%
16:00 +12°C° 0 mm 1 mps 759 mmHg 70%
17:00 +10°C° 0 mm 1 mps 759 mmHg 76%
18:00 +8°C° 0 mm 2 mps 759 mmHg 81%
19:00 +9°C° 0 mm 1 mps 759 mmHg 83%
20:00 +8°C° 0 mm 1 mps 759 mmHg 84%
21:00 +8°C° 0 mm 1 mps 759 mmHg 86%
22:00 +8°C° 0 mm 1 mps 759 mmHg 87%
23:00 +8°C° 0 mm 1 mps 759 mmHg 87%

5 November, Thursday

Time Temperature Precipitation Wind Pressure Humidity
00:00 +7°C° 0 mm 1 mps 759 mmHg 88%
01:00 +7°C° 0 mm 1 mps 759 mmHg 89%
02:00 +7°C° 0 mm 1 mps 759 mmHg 89%
03:00 +7°C° 0 mm 1 mps 759 mmHg 90%
04:00 +6°C° 0 mm 2 mps 759 mmHg 91%
05:00 +6°C° 0 mm 2 mps 759 mmHg 92%
06:00 +6°C° 0 mm 2 mps 759 mmHg 93%
07:00 +6°C° 0 mm 2 mps 759 mmHg 92%
08:00 +6°C° 0 mm 2 mps 759 mmHg 92%
09:00 +7°C° 0 mm 2 mps 759 mmHg 92%
10:00 +8°C° 0 mm 2 mps 759 mmHg 87%
11:00 +9°C° 0 mm 2 mps 759 mmHg 81%
12:00 +10°C° 0 mm 3 mps 759 mmHg 76%
13:00 +10°C° 0 mm 3 mps 759 mmHg 77%
14:00 +10°C° 0 mm 3 mps 759 mmHg 77%
15:00 +10°C° 0 mm 3 mps 759 mmHg 78%
16:00 +9°C° 0 mm 3 mps 759 mmHg 82%
17:00 +8°C° 0 mm 3 mps 759 mmHg 87%
18:00 +7°C° 0 mm 3 mps 759 mmHg 91%
19:00 +7°C° 0 mm 2 mps 759 mmHg 90%
20:00 +7°C° 0 mm 2 mps 759 mmHg 90%
21:00 +7°C° 0 mm 2 mps 759 mmHg 89%
22:00 +7°C° 0 mm 2 mps 759 mmHg 88%
23:00 +7°C° 0 mm 3 mps 759 mmHg 87%

6 November, Friday

Time Temperature Precipitation Wind Pressure Humidity
00:00 +5°C° 0 mm 3 mps 759 mmHg 87%
01:00 +5°C° 0 mm 3 mps 759 mmHg 88%
02:00 +5°C° 0 mm 2 mps 760 mmHg 90%
03:00 +5°C° 0 mm 2 mps 760 mmHg 91%
04:00 +4°C° 0 mm 2 mps 760 mmHg 92%
05:00 +4°C° 0 mm 2 mps 760 mmHg 94%
06:00 +3°C° 0 mm 2 mps 760 mmHg 95%
07:00 +3°C° 0 mm 2 mps 760 mmHg 93%
08:00 +3°C° 0 mm 2 mps 760 mmHg 91%
09:00 +2°C° 0 mm 3 mps 760 mmHg 89%
10:00 +3°C° 0 mm 3 mps 760 mmHg 83%
11:00 +4°C° 0 mm 3 mps 760 mmHg 76%
12:00 +5°C° 0 mm 3 mps 760 mmHg 70%
13:00 +5°C° 0 mm 3 mps 760 mmHg 71%
14:00 +5°C° 0 mm 3 mps 760 mmHg 72%
15:00 +5°C° 0 mm 4 mps 760 mmHg 73%
16:00 +4°C° 0 mm 3 mps 760 mmHg 77%
17:00 +3°C° 0 mm 3 mps 760 mmHg 81%
18:00 +2°C° 0 mm 3 mps 760 mmHg 85%
19:00 +2°C° 0 mm 3 mps 760 mmHg 86%
20:00 +2°C° 0 mm 3 mps 760 mmHg 88%
21:00 +1°C° 0 mm 3 mps 760 mmHg 89%
22:00 +1°C° 0 mm 3 mps 759 mmHg 90%
23:00 +1°C° 0 mm 3 mps 759 mmHg 91%
Show more